McGregor, MN

2:43 PM CST on February 12, 2016 (GMT -0600)
McGregor

Weather History for KHZX - March, 2013

Change the Weather History Date:

Friday, March 29, 2013

  Actual Average Record
Temperature  
Mean Temperature 36 °F -  
Max Temperature 50 °F - - ()
Min Temperature 23 °F - - ()
Degree Days  
Heating Degree Days 28    
Moisture  
Dew Point 28 °F    
Average Humidity 69    
Maximum Humidity 93    
Minimum Humidity 50    
Precipitation  
Precipitation 0.00 in - - ()
Sea Level Pressure  
Sea Level Pressure 30.17 in    
Wind  
Wind Speed 3 mph (South)    
Max Wind Speed 9 mph    
Max Gust Speed -    
Visibility 10 miles    
Events      
T = Trace of Precipitation, MM = Missing Value Source: NWS Daily Summary

Daily Weather History Graph

Daily Weather History Graph

Search for Another Location

Airport or City:

Trip Planner

Search our weather history database for the weather conditions in past years. The results will help you decide how hot, cold, wet, or windy it might be!

Date:

Astronomy

Mar. 29, 2013 Rise Set
Actual Time 6:57 AM CDT 7:38 PM CDT
Civil Twilight 6:27 AM CDT 8:09 PM CDT
Nautical Twilight 5:51 AM CDT 8:45 PM CDT
Astronomical Twilight 5:13 AM CDT 9:23 PM CDT
Moon 10:52 PM CDT (3/29) 7:56 AM CDT (3/29)
Length of Visible Light 13h 41m
Length of Day
12h 40m
Waning Gibbous, 93% of the Moon is Illuminated
Mar 29
Waning Gibbous
Apr 2
Last Quarter
Apr 10
New
Apr 18
First Quarter
Apr 25
Full

Hourly Weather History & Observations

Time (CDT) Temp. Windchill Dew Point Humidity Pressure Visibility Wind Dir Wind Speed Gust Speed Precip Events Conditions
12:12 AM 30.2 °F - 23.0 °F 75% 30.26 in 10.0 mi Calm Calm - N/A   Clear
12:33 AM 28.4 °F - 21.2 °F 74% 30.26 in 10.0 mi Calm Calm - N/A   Clear
12:53 AM 28.4 °F - 21.2 °F 74% 30.26 in 10.0 mi Calm Calm - N/A   Clear
1:12 AM 28.4 °F - 21.2 °F 74% 30.26 in 10.0 mi Calm Calm - N/A   Scattered Clouds
1:32 AM 28.4 °F - 21.2 °F 74% 30.26 in 10.0 mi Calm Calm - N/A   Scattered Clouds
1:52 AM 26.6 °F - 21.2 °F 80% 30.27 in 10.0 mi Calm Calm - N/A   Clear
2:12 AM 28.4 °F - 21.2 °F 74% 30.26 in 10.0 mi Calm Calm - N/A   Clear
2:33 AM 26.6 °F - 21.2 °F 80% 30.27 in 10.0 mi Calm Calm - N/A   Clear
2:53 AM 24.8 °F - 21.2 °F 86% 30.27 in 10.0 mi Calm Calm - N/A   Scattered Clouds
3:06 AM 23.0 °F - 21.2 °F 93% 30.26 in 10.0 mi Calm Calm - N/A   Scattered Clouds
3:32 AM 24.8 °F - 21.2 °F 86% 30.26 in 10.0 mi Calm Calm - N/A   Mostly Cloudy
3:53 AM 24.8 °F - 21.2 °F 86% 30.25 in 10.0 mi Calm Calm - N/A   Overcast
4:13 AM 26.6 °F - 23.0 °F 86% 30.25 in 10.0 mi Calm Calm - N/A   Overcast
4:33 AM 28.4 °F - 23.0 °F 80% 30.24 in 10.0 mi Calm Calm - N/A   Overcast
4:51 AM 28.4 °F - 23.0 °F 80% 30.24 in 10.0 mi Calm Calm - N/A   Overcast
5:10 AM 26.6 °F - 21.2 °F 80% 30.25 in 10.0 mi Calm Calm - N/A   Mostly Cloudy
5:33 AM 26.6 °F - 21.2 °F 80% 30.24 in 10.0 mi Calm Calm - N/A   Scattered Clouds
5:53 AM 26.6 °F - 21.2 °F 80% 30.24 in 10.0 mi Calm Calm - N/A   Mostly Cloudy
6:12 AM 26.6 °F - 21.2 °F 80% 30.24 in 10.0 mi Calm Calm - N/A   Overcast
6:33 AM 26.6 °F - 21.2 °F 80% 30.24 in 10.0 mi Calm Calm - N/A   Mostly Cloudy
6:53 AM 26.6 °F - 21.2 °F 80% 30.24 in 10.0 mi Calm Calm - N/A   Mostly Cloudy
7:13 AM 26.6 °F - 21.2 °F 80% 30.24 in 10.0 mi Calm Calm - N/A   Mostly Cloudy
7:33 AM 26.6 °F - 21.2 °F 80% 30.24 in 10.0 mi Calm Calm - N/A   Mostly Cloudy
7:53 AM 30.2 °F - 23.0 °F 75% 30.24 in 10.0 mi Calm Calm - N/A   Overcast
8:13 AM 30.2 °F - 23.0 °F 75% 30.24 in 10.0 mi Calm Calm - N/A   Overcast
8:33 AM 32.0 °F - 23.0 °F 69% 30.24 in 10.0 mi Calm Calm - N/A   Mostly Cloudy
8:52 AM 32.0 °F - 24.8 °F 75% 30.24 in 10.0 mi Calm Calm - N/A   Scattered Clouds
9:13 AM 33.8 °F 28.6 °F 26.6 °F 75% 30.24 in 10.0 mi SSE 5.8 mph - N/A   Scattered Clouds
9:33 AM 35.6 °F 29.9 °F 28.4 °F 75% 30.23 in 10.0 mi SSE 6.9 mph - N/A   Scattered Clouds
9:53 AM 37.4 °F 32.8 °F 28.4 °F 70% 30.22 in 10.0 mi SSE 5.8 mph - N/A   Scattered Clouds
10:13 AM 39.2 °F 34.2 °F 30.2 °F 70% 30.22 in 10.0 mi SSE 6.9 mph - N/A   Mostly Cloudy
10:33 AM 39.2 °F 34.2 °F 30.2 °F 70% 30.22 in 10.0 mi SSE 6.9 mph - N/A   Scattered Clouds
10:53 AM 41.0 °F 36.4 °F 30.2 °F 65% 30.22 in 10.0 mi SSE 6.9 mph - N/A   Clear
11:13 AM 41.0 °F 35.2 °F 30.2 °F 65% 30.21 in 10.0 mi SSE 9.2 mph - N/A   Clear
11:52 AM 42.8 °F 38.6 °F 32.0 °F 66% 30.20 in 10.0 mi South 6.9 mph - N/A   Clear
12:13 PM 44.6 °F 39.7 °F 32.0 °F 61% 30.19 in 10.0 mi SSW 9.2 mph - N/A   Clear
12:33 PM 44.6 °F 40.2 °F 32.0 °F 61% 30.19 in 10.0 mi South 8.1 mph - N/A   Clear
12:53 PM 44.6 °F 40.2 °F 32.0 °F 61% 30.18 in 10.0 mi South 8.1 mph - N/A   Clear
1:12 PM 46.4 °F 42.9 °F 32.0 °F 57% 30.17 in 10.0 mi SSE 6.9 mph - N/A   Clear
1:33 PM 46.4 °F 42.9 °F 32.0 °F 57% 30.17 in 10.0 mi SSW 6.9 mph - N/A   Clear
1:52 PM 48.2 °F - 32.0 °F 54% 30.16 in 10.0 mi South 6.9 mph - N/A   Clear
2:12 PM 48.2 °F - 32.0 °F 54% 30.15 in 10.0 mi South 9.2 mph - N/A   Clear
2:33 PM 48.2 °F - 32.0 °F 54% 30.15 in 10.0 mi South 8.1 mph - N/A   Clear
2:53 PM 48.2 °F - 32.0 °F 54% 30.14 in 10.0 mi South 8.1 mph - N/A   Clear
3:13 PM 48.2 °F - 32.0 °F 54% 30.13 in 10.0 mi South 6.9 mph - N/A   Clear
3:30 PM 48.2 °F - 32.0 °F 54% 30.13 in 10.0 mi South 9.2 mph - N/A   Clear
3:53 PM 50.0 °F - 32.0 °F 50% 30.12 in 10.0 mi SW 8.1 mph - N/A   Clear
4:13 PM 48.2 °F - 32.0 °F 54% 30.12 in 10.0 mi SW 6.9 mph - N/A   Scattered Clouds
4:33 PM 48.2 °F - 32.0 °F 54% 30.11 in 10.0 mi SSW 8.1 mph - N/A   Scattered Clouds
4:53 PM 48.2 °F - 32.0 °F 54% 30.11 in 10.0 mi SSW 8.1 mph - N/A   Scattered Clouds
5:13 PM 48.2 °F - 32.0 °F 54% 30.10 in 10.0 mi South 5.8 mph - N/A   Scattered Clouds
5:33 PM 48.2 °F - 32.0 °F 54% 30.09 in 10.0 mi South 5.8 mph - N/A   Scattered Clouds
5:53 PM 48.2 °F - 32.0 °F 54% 30.09 in 10.0 mi South 6.9 mph - N/A   Scattered Clouds
6:13 PM 46.4 °F 42.9 °F 32.0 °F 57% 30.09 in 10.0 mi South 6.9 mph - N/A   Clear
6:33 PM 46.4 °F 43.5 °F 32.0 °F 57% 30.09 in 10.0 mi South 5.8 mph - N/A   Clear
6:52 PM 46.4 °F 44.3 °F 32.0 °F 57% 30.09 in 10.0 mi South 4.6 mph - N/A   Clear
7:13 PM 44.6 °F 41.4 °F 32.0 °F 61% 30.08 in 10.0 mi SSE 5.8 mph - N/A   Clear
7:33 PM 42.8 °F 38.6 °F 32.0 °F 66% 30.08 in 10.0 mi SSE 6.9 mph - N/A   Clear
7:52 PM 42.8 °F 38.6 °F 32.0 °F 66% 30.08 in 10.0 mi SSE 6.9 mph - N/A   Clear
8:13 PM 41.0 °F 36.4 °F 32.0 °F 70% 30.08 in 10.0 mi SSE 6.9 mph - N/A   Clear
8:33 PM 41.0 °F 36.4 °F 32.0 °F 70% 30.07 in 10.0 mi SSE 6.9 mph - N/A   Clear
8:52 PM 41.0 °F 36.4 °F 32.0 °F 70% 30.07 in 10.0 mi SSE 6.9 mph - N/A   Scattered Clouds
9:13 PM 41.0 °F 37.1 °F 32.0 °F 70% 30.07 in 10.0 mi SSE 5.8 mph - N/A   Mostly Cloudy
9:33 PM 39.2 °F 35.0 °F 32.0 °F 75% 30.07 in 10.0 mi SSE 5.8 mph - N/A   Overcast
9:53 PM 39.2 °F 33.6 °F 32.0 °F 75% 30.06 in 10.0 mi SSE 8.1 mph - N/A   Mostly Cloudy
10:12 PM 39.2 °F 33.6 °F 32.0 °F 75% 30.06 in 10.0 mi SSE 8.1 mph - N/A   Overcast
10:33 PM 39.2 °F 34.2 °F 32.0 °F 75% 30.04 in 10.0 mi SSE 6.9 mph - N/A   Mostly Cloudy
10:53 PM 39.2 °F 33.0 °F 32.0 °F 75% 30.03 in 10.0 mi SSE 9.2 mph - N/A   Mostly Cloudy
11:13 PM 39.2 °F 33.0 °F 32.0 °F 75% 30.03 in 10.0 mi South 9.2 mph - N/A   Overcast
11:31 PM 39.2 °F 34.2 °F 32.0 °F 75% 30.02 in 10.0 mi SSE 6.9 mph - N/A   Overcast
11:53 PM 39.2 °F 33.6 °F 32.0 °F 75% 30.01 in 10.0 mi South 8.1 mph - N/A   Overcast